Panama City Tyndall AFB, FL

12:03 PM CDT on August 23, 2017 (GMT -0500)
Tyndall Air Force Base

Weather History for KPAM - October, 2012

Change the Weather History Date:

Wednesday, October 17, 2012

  Actual Average Record
Temperature  
Mean Temperature 70 °F -  
Max Temperature 78 °F 77 °F 86 °F (1998)
Min Temperature 61 °F 60 °F 48 °F (2001)
Cooling Degree Days 4    
Growing Degree Days 20 (Base 50)    
Moisture  
Dew Point 63 °F    
Average Humidity 83    
Maximum Humidity 100    
Minimum Humidity 58    
Precipitation  
Precipitation 0.00 in - - ()
Sea Level Pressure  
Sea Level Pressure 29.88 in    
Wind  
Wind Speed 5 mph (SE)    
Max Wind Speed 12 mph    
Max Gust Speed -    
Visibility 10 miles    
Events      
Averages and records for this station are not official NWS values.
T = Trace of Precipitation, MM = Missing Value Source: NWS Daily Summary

Daily Weather History Graph

Daily Weather History Graph

Search for Another Location

Airport or City:

Trip Planner

Search our weather history database for the weather conditions in past years. The results will help you decide how hot, cold, wet, or windy it might be!

Date:

Astronomy

Oct. 17, 2012 Rise Set
Actual Time 6:45 AM CDT 6:08 PM CDT
Civil Twilight 6:21 AM CDT 6:32 PM CDT
Nautical Twilight 5:53 AM CDT 7:00 PM CDT
Astronomical Twilight 5:26 AM CDT 7:28 PM CDT
Moon 9:06 AM CDT (10/17) 7:57 PM CDT (10/17)
Length of Visible Light 12h 11m
Length of Day
11h 22m
Waxing Crescent, 7% of the Moon is Illuminated
Oct 17
Waxing Crescent
Oct 21
First Quarter
Oct 29
Full
Nov 6
Last Quarter
Nov 13
New

Hourly Weather History & Observations

Time (CDT) Temp. Dew Point Humidity Pressure Visibility Wind Dir Wind Speed Gust Speed Precip Events Conditions
12:55 AM 64.4 °F 57.2 °F 77% 29.90 in 10.0 mi NNE 4.6 mph - N/A   Clear
1:55 AM 63.7 °F 57.0 °F 79% 29.88 in 10.0 mi ENE 6.9 mph - N/A   Clear
2:55 AM 62.8 °F 57.0 °F 81% 29.88 in 10.0 mi NE 3.5 mph - N/A   Clear
3:55 AM 61.9 °F 57.2 °F 85% 29.90 in 10.0 mi NE 3.5 mph - N/A   Clear
4:55 AM 62.6 °F 56.8 °F 81% 29.90 in 10.0 mi Calm Calm - N/A   Clear
5:55 AM 61.9 °F 58.6 °F 89% 29.90 in 10.0 mi ESE 3.5 mph - N/A   Partly Cloudy
6:55 AM 62.1 °F 58.5 °F 88% 29.92 in 10.0 mi NE 3.5 mph - N/A   Overcast
7:55 AM 63.1 °F 61.0 °F 93% 29.92 in 10.0 mi ENE 9.2 mph - N/A   Mostly Cloudy
8:55 AM 63.9 °F 63.0 °F 97% 29.93 in 10.0 mi ENE 4.6 mph - N/A   Mostly Cloudy
9:55 AM 66.2 °F 64.4 °F 94% 29.93 in 10.0 mi East 4.6 mph - N/A   Mostly Cloudy
10:55 AM 72.5 °F 67.3 °F 84% 29.94 in 10.0 mi East 5.8 mph - N/A   Scattered Clouds
11:55 AM 76.1 °F 68.7 °F 78% 29.92 in 10.0 mi Variable 4.6 mph - N/A   Scattered Clouds
12:55 PM 78.1 °F 62.1 °F 58% 29.88 in 10.0 mi South 5.8 mph - N/A   Clear
1:55 PM 77.5 °F 65.3 °F 66% 29.86 in 10.0 mi South 8.1 mph - N/A   Clear
2:15 PM 77.0 °F 66.2 °F 69% 29.86 in 10.0 mi SSW 9.2 mph - N/A   Partly Cloudy
2:30 PM 77.0 °F 66.2 °F 69% 29.85 in 10.0 mi SSW 11.5 mph - N/A   Partly Cloudy
2:55 PM 77.4 °F 65.8 °F 67% 29.85 in 10.0 mi SSW 8.1 mph - N/A   Clear
3:55 PM 77.4 °F 67.3 °F 71% 29.84 in 10.0 mi SSW 9.2 mph - N/A   Clear
4:55 PM 76.3 °F 66.7 °F 72% 29.83 in 10.0 mi South 9.2 mph - N/A   Clear
5:55 PM 73.6 °F 66.2 °F 78% 29.83 in 10.0 mi South 8.1 mph - N/A   Clear
6:55 PM 71.1 °F 65.5 °F 82% 29.84 in 10.0 mi SSW 4.6 mph - N/A   Clear
7:55 PM 64.9 °F 64.2 °F 98% 29.86 in 10.0 mi SE 3.5 mph - N/A   Clear
8:55 PM 63.5 °F 63.3 °F 99% 29.88 in 10.0 mi Calm Calm - N/A   Clear
9:55 PM 62.6 °F 62.6 °F 100% 29.88 in 10.0 mi Calm Calm - N/A   Clear
10:55 PM 62.2 °F 62.2 °F 100% 29.88 in 10.0 mi Calm Calm - N/A   Clear
11:55 PM 61.7 °F 61.7 °F 100% 29.86 in 10.0 mi Calm Calm - N/A   Clear